TimeCDT,TemperatureF,Dew PointF,Humidity,Sea Level PressureIn,VisibilityMPH,Wind Direction,Wind SpeedMPH,Gust SpeedMPH,PrecipitationIn,Events,Conditions,WindDirDegrees,DateUTC
12:15 AM,30.2,15.8,55,29.96,10.0,NNE,16.1,26.5,N/A,,Overcast,30,2013-03-11 05:15:00
12:35 AM,30.2,15.8,55,29.95,10.0,NNE,15.0,-,N/A,,Overcast,20,2013-03-11 05:35:00
12:55 AM,30.2,15.8,55,29.95,10.0,North,16.1,-,N/A,,Overcast,10,2013-03-11 05:55:00
1:15 AM,30.2,15.8,55,29.94,10.0,North,13.8,-,N/A,,Overcast,10,2013-03-11 06:15:00
2:15 AM,24.8,14.0,64,29.93,10.0,NNW,11.5,-,N/A,,Overcast,330,2013-03-11 07:15:00
2:35 AM,26.6,15.8,64,29.92,10.0,NNW,10.4,-,N/A,,Overcast,340,2013-03-11 07:35:00
2:55 AM,26.6,15.8,64,29.92,10.0,NNW,11.5,-,N/A,,Overcast,340,2013-03-11 07:55:00
3:15 AM,26.6,15.8,64,29.91,10.0,NW,10.4,-,N/A,,Overcast,320,2013-03-11 08:15:00
3:35 AM,26.6,15.8,64,29.90,10.0,NNW,10.4,-,N/A,,Overcast,330,2013-03-11 08:35:00
3:55 AM,26.6,15.8,64,29.90,10.0,NW,12.7,-,N/A,,Overcast,320,2013-03-11 08:55:00
4:15 AM,26.6,15.8,64,29.89,10.0,NW,9.2,-,N/A,,Overcast,310,2013-03-11 09:15:00
4:35 AM,26.6,15.8,64,29.88,10.0,NW,9.2,-,N/A,,Overcast,310,2013-03-11 09:35:00
4:55 AM,24.8,14.0,64,29.88,10.0,NW,10.4,-,N/A,,Overcast,310,2013-03-11 09:55:00
5:15 AM,23.0,12.2,63,29.88,10.0,NW,15.0,-,N/A,,Overcast,310,2013-03-11 10:15:00
5:35 AM,21.2,12.2,68,29.88,10.0,NW,16.1,-,N/A,,Overcast,310,2013-03-11 10:35:00
5:55 AM,23.0,12.2,63,29.88,10.0,NW,15.0,-,N/A,,Overcast,320,2013-03-11 10:55:00
6:15 AM,23.0,12.2,63,29.88,10.0,NW,15.0,-,N/A,,Overcast,310,2013-03-11 11:15:00
6:35 AM,23.0,12.2,63,29.87,10.0,NNW,12.7,-,N/A,,Overcast,330,2013-03-11 11:35:00
6:55 AM,23.0,10.4,59,29.88,10.0,NNW,13.8,-,N/A,,Overcast,330,2013-03-11 11:55:00
7:15 AM,23.0,10.4,59,29.88,10.0,NNW,10.4,-,N/A,,Overcast,330,2013-03-11 12:15:00
7:35 AM,23.0,10.4,59,29.87,10.0,NNW,9.2,-,N/A,,Overcast,340,2013-03-11 12:35:00
7:55 AM,23.0,10.4,59,29.87,10.0,NNW,9.2,-,N/A,,Overcast,340,2013-03-11 12:55:00
8:15 AM,23.0,12.2,63,29.87,10.0,NNW,9.2,-,N/A,,Overcast,340,2013-03-11 13:15:00
8:35 AM,24.8,12.2,59,29.87,10.0,NW,10.4,-,N/A,,Overcast,320,2013-03-11 13:35:00
8:55 AM,23.0,12.2,63,29.87,10.0,NW,11.5,-,N/A,,Overcast,310,2013-03-11 13:55:00
9:15 AM,24.8,12.2,59,29.87,10.0,NW,9.2,-,N/A,,Overcast,320,2013-03-11 14:15:00
9:35 AM,24.8,12.2,59,29.86,10.0,NW,9.2,-,N/A,,Overcast,320,2013-03-11 14:35:00
9:55 AM,23.0,10.4,59,29.86,10.0,WNW,10.4,-,N/A,,Overcast,290,2013-03-11 14:55:00
10:15 AM,21.2,10.4,63,29.86,10.0,WNW,9.2,-,N/A,,Mostly Cloudy,300,2013-03-11 15:15:00
10:35 AM,19.4,8.6,63,29.86,10.0,WNW,9.2,-,N/A,,Overcast,300,2013-03-11 15:35:00
10:55 AM,19.4,10.4,68,29.86,10.0,WNW,8.1,-,N/A,,Mostly Cloudy,290,2013-03-11 15:55:00
11:15 AM,21.2,10.4,63,29.86,10.0,WNW,9.2,-,N/A,,Scattered Clouds,290,2013-03-11 16:15:00
11:35 AM,19.4,8.6,63,29.86,10.0,WNW,9.2,-,N/A,,Clear,300,2013-03-11 16:35:00
11:55 AM,19.4,8.6,63,29.86,10.0,WNW,9.2,-,N/A,,Clear,300,2013-03-11 16:55:00
12:15 PM,21.2,10.4,63,29.85,10.0,NW,8.1,-,N/A,,Clear,310,2013-03-11 17:15:00
12:35 PM,21.2,10.4,63,29.84,10.0,WNW,9.2,-,N/A,,Clear,290,2013-03-11 17:35:00
12:55 PM,21.2,10.4,63,29.84,10.0,WNW,11.5,-,N/A,,Clear,290,2013-03-11 17:55:00
1:15 PM,24.8,12.2,59,29.83,10.0,WNW,9.2,-,N/A,,Clear,290,2013-03-11 18:15:00
1:35 PM,24.8,12.2,59,29.82,10.0,WNW,11.5,-,N/A,,Clear,290,2013-03-11 18:35:00
1:55 PM,24.8,12.2,59,29.82,10.0,NW,10.4,-,N/A,,Clear,310,2013-03-11 18:55:00
2:15 PM,26.6,12.2,55,29.81,10.0,WNW,11.5,-,N/A,,Clear,290,2013-03-11 19:15:00
2:35 PM,26.6,14.0,59,29.80,10.0,WNW,12.7,-,N/A,,Clear,290,2013-03-11 19:35:00
2:55 PM,26.6,14.0,59,29.80,10.0,WNW,13.8,-,N/A,,Clear,290,2013-03-11 19:55:00
3:15 PM,26.6,14.0,59,29.81,10.0,WNW,16.1,-,N/A,,Clear,300,2013-03-11 20:15:00
3:35 PM,26.6,12.2,55,29.82,10.0,NW,16.1,-,N/A,,Clear,310,2013-03-11 20:35:00
3:55 PM,26.6,14.0,59,29.82,10.0,NW,15.0,-,N/A,,Clear,310,2013-03-11 20:55:00
4:15 PM,26.6,14.0,59,29.82,10.0,NW,15.0,-,N/A,,Clear,310,2013-03-11 21:15:00
4:35 PM,28.4,15.8,59,29.82,10.0,WNW,11.5,-,N/A,,Clear,290,2013-03-11 21:35:00
4:55 PM,26.6,14.0,59,29.82,10.0,WNW,12.7,17.3,N/A,,Scattered Clouds,290,2013-03-11 21:55:00
5:15 PM,26.6,12.2,55,29.82,10.0,WNW,10.4,-,N/A,,Scattered Clouds,300,2013-03-11 22:15:00
5:35 PM,26.6,14.0,59,29.81,10.0,NW,10.4,-,N/A,,Clear,310,2013-03-11 22:35:00
5:55 PM,26.6,14.0,59,29.82,10.0,NW,12.7,-,N/A,,Clear,310,2013-03-11 22:55:00
6:15 PM,26.6,12.2,55,29.83,10.0,WNW,10.4,-,N/A,,Scattered Clouds,300,2013-03-11 23:15:00
6:35 PM,26.6,12.2,55,29.83,10.0,WNW,10.4,-,N/A,,Clear,300,2013-03-11 23:35:00
6:55 PM,26.6,10.4,51,29.83,10.0,WNW,10.4,-,N/A,,Scattered Clouds,300,2013-03-11 23:55:00
7:15 PM,24.8,10.4,54,29.83,10.0,WNW,12.7,-,N/A,,Mostly Cloudy,300,2013-03-12 00:15:00
7:35 PM,24.8,10.4,54,29.84,10.0,WNW,10.4,-,N/A,,Overcast,300,2013-03-12 00:35:00
7:55 PM,26.6,10.4,51,29.84,10.0,WNW,11.5,-,N/A,,Overcast,300,2013-03-12 00:55:00
8:15 PM,26.6,10.4,51,29.84,10.0,WNW,9.2,-,N/A,,Overcast,300,2013-03-12 01:15:00
8:35 PM,26.6,12.2,55,29.85,10.0,West,10.4,-,N/A,,Overcast,280,2013-03-12 01:35:00
8:55 PM,24.8,10.4,54,29.85,10.0,West,10.4,-,N/A,,Overcast,280,2013-03-12 01:55:00
9:15 PM,24.8,10.4,54,29.85,10.0,West,12.7,-,N/A,,Overcast,280,2013-03-12 02:15:00
9:35 PM,26.6,10.4,51,29.86,10.0,West,10.4,-,N/A,,Overcast,280,2013-03-12 02:35:00
9:55 PM,24.8,10.4,54,29.86,10.0,West,10.4,-,N/A,,Overcast,280,2013-03-12 02:55:00
10:14 PM,24.8,10.4,54,29.86,10.0,West,8.1,-,N/A,,Overcast,270,2013-03-12 03:14:00
10:35 PM,24.8,12.2,59,29.86,10.0,West,6.9,-,N/A,,Overcast,280,2013-03-12 03:35:00
10:55 PM,24.8,12.2,59,29.86,10.0,West,6.9,-,N/A,,Overcast,280,2013-03-12 03:55:00
11:14 PM,26.6,12.2,55,29.86,10.0,West,5.8,-,N/A,,Overcast,260,2013-03-12 04:14:00
11:35 PM,26.6,14.0,59,29.85,10.0,West,3.5,-,N/A,,Overcast,260,2013-03-12 04:35:00
11:55 PM,26.6,15.8,64,29.85,10.0,West,5.8,-,N/A,,Overcast,270,2013-03-12 04:55:00